Flag for USA

Past Weather in 43°05'52"N, 87°55'44"W, USA — Yesterday and Last 2 Weeks

Now
81 °F

Sunny.


Feels Like: 80 °F
Forecast: 81 / 65 °F
Wind: 8 mph from East

Location: Milwaukee / Timmerman
Current Time: Aug 14, 2020 at 8:21:52 pm
Latest Report: Aug 14, 2020 at 6:45 pm
Visibility: 10 mi
Pressure29.99 "Hg
Humidity: 39%
Dew Point: 54 °F
Location of 43°05'52"N, 87°55'44"WLocation

Past Weather in 43°05'52"N, 87°55'44"W — Graph

°F

43°05'52"N, 87°55'44"W Temperature Yesterday

Maximum temperature yesterday: 82 °F (at 1:45 pm)
Minimum temperature yesterday: 61 °F (at 12:15 am)
Average temperature yesterday: 68 °F

High & Low Weather Summary for the Past Weeks

 TemperatureHumidityPressure
High88 °F (Aug 9, 2:45 pm)94% (Aug 3, 2:35 am)30.19 "Hg (Aug 3, 2:35 am)
Low50 °F (Aug 5, 4:15 am)20% (Aug 12, 3:45 pm)29.79 "Hg (Aug 10, 6:45 pm)
Average66 °F70%30.04 "Hg
* Reported Jul 30 6:45 pm — Aug 14 6:45 pm, 43°05'52"N, 87°55'44"W. Weather by CustomWeather, © 2020

Note: Actual official high and low records may vary slightly from our data, if they occured in-between our weather recording intervals... More about our weather records

43°05'52"N, 87°55'44"W Weather History for the Previous 24 Hours

Scroll right to see more
 ConditionsComfort  
Time TempWeatherWind HumidityBarometerVisibility
6:45 pm
Fri, Aug 14
81 °FSunny.8 mph39%29.99 "Hg10 mi
5:45 pm82 °FSunny.8 mph35%30.00 "Hg10 mi
4:45 pm82 °FSunny.8 mph37%30.00 "Hg10 mi
3:45 pm82 °FSunny.8 mph37%30.01 "Hg10 mi
2:45 pm84 °FSunny.9 mph31%30.03 "Hg10 mi
1:45 pm84 °FSunny.6 mph31%30.05 "Hg10 mi
12:45 pm82 °FSunny.6 mph35%30.06 "Hg10 mi
11:45 am82 °FSunny.8 mph40%30.06 "Hg10 mi
10:45 am79 °FSunny.6 mph54%30.07 "Hg10 mi
9:45 am77 °FSunny.6 mph61%30.07 "Hg10 mi
8:45 am72 °FScattered clouds.No wind83%30.07 "Hg10 mi
7:45 am68 °FFog.No wind88%30.08 "Hg4 mi
7:15 am66 °FSunny.No wind83%30.08 "Hg10 mi
6:55 am63 °FSunny.No wind94%30.08 "Hg10 mi
6:35 am63 °FSunny.No wind88%30.08 "Hg10 mi
6:15 am63 °FSunny.No wind88%30.08 "Hg10 mi
5:55 am63 °FClear.No wind88%30.08 "Hg10 mi
5:35 am61 °FClear.No wind94%30.08 "Hg7 mi
5:15 am61 °FClear.No wind94%30.08 "Hg10 mi
4:55 am61 °FClear.No wind94%30.07 "Hg10 mi
4:35 am61 °FFog.No wind94%30.07 "Hg5 mi
4:15 am63 °FClear.No wind88%30.07 "Hg10 mi
3:55 am63 °FClear.No wind94%30.06 "Hg10 mi
3:35 am63 °FFog.No wind88%30.06 "Hg2 mi
3:15 am63 °FClear.No wind94%30.06 "Hg7 mi
2:35 am64 °FClear.No wind88%30.07 "Hg7 mi
2:15 am64 °FClear.No wind88%30.08 "Hg10 mi
1:55 am64 °FClear.No wind88%30.08 "Hg10 mi
1:35 am64 °FClear.No wind88%30.09 "Hg10 mi
1:15 am64 °FClear.No wind88%30.09 "Hg10 mi
12:55 am64 °FClear.No wind88%30.10 "Hg10 mi
12:35 am66 °FClear.No wind83%30.10 "Hg10 mi
12:15 am68 °FClear.No wind83%30.10 "Hg10 mi
11:55 pm
Thu, Aug 13
70 °FClear.No wind78%30.10 "Hg10 mi
11:35 pm70 °FClear.No wind78%30.09 "Hg10 mi
11:15 pm70 °FClear.No wind83%30.09 "Hg10 mi
10:55 pm70 °FClear.No wind83%30.09 "Hg10 mi
10:35 pm70 °FClear.No wind83%30.10 "Hg10 mi
10:15 pm70 °FClear.3 mph83%30.10 "Hg10 mi
9:55 pm70 °FClear.3 mph78%30.10 "Hg10 mi
9:35 pm70 °FClear.No wind78%30.10 "Hg10 mi
9:15 pm72 °FClear.3 mph69%30.11 "Hg10 mi
Weather by CustomWeather, © 2020

See weather overview